SIRIUS-1 (26390 NORAD) Tracking and Keplerian Element Data

This shows tracking and keplerian element data for the satellite.

Feedback or suggestion? Click here.




ElementValue
Catalog26390
NameSIRIUS-1
Epoch Orbit2892
Epoch Day3.39855642
Epoch Year2019
RAAN214.6789
Inclination59.4283
Eccentricity0.000153
Argument of Perigee61.9196
Mean Anonmoly112.1472
Mean Motion1.57877111
Decay Rate9.6E-07
L11 26390U 00035A 19003.39855642 .00000096 00000-0 00000-0 0 9998
L22 26390 59.4283 214.6789 0001530 61.9196 112.1472 1.57877111 28928



Live tracking and technical data element details for SIRIUS-1 (NORAD 26390). SIRIUS-1 can be tracked NOW for your location showing map with azimuth and elevation plus other details from your city location.







IsCatalogInMostPopularTable: catalog: 26390, numindb: 302
Update: records affected: 1



GetName: 26390 SIRIUS-1

Hit Count: updated at: Fri, 16 May 2025 10:39:42 GMT